Hourly Data Report for October 02, 2013

All times are specified in Local Standard Time (LST). Add 1 hour to adjust for Daylight Saving Time where and when it is observed.

POND INLET A
NUNAVUT

72°41'22.000" N
77°58'08.000" W
61.60 m
2403206
71095
YIO

Download Data

Hourly Data (October 2013)
Hourly Data Report for October 2, 2013
Temp Definition
°C
Dew Point Temp Definition
°C
Rel Hum Definition
%
Wind Dir Definition
10's deg

Wind Spd Definition
km/h
Visibility Definition
km
Stn Press Definition
kPa
Hmdx Definition


Wind Chill Definition


Weather Definition


TIME
00:00 Legend Double Dagger -5.5 -7.8 84 15 15 16.1 100.18   -11 LegendNANA
01:00 Legend Double Dagger -5.7 -8.3 82 15 18 16.1 100.20   -12 LegendNANA
02:00 Legend Double Dagger -5.5 -8.3 81 16 13 16.1 100.23   -11 LegendNANA
03:00 Legend Double Dagger -6.2 -8.3 85 14 15 16.1 100.24   -12 LegendNANA
04:00 Legend Double Dagger -5.4 -7.8 84 12 11 16.1 100.27   -10 LegendNANA
05:00 Legend Double Dagger -6.0 -8.1 85 13 13 16.1 100.29   -11 LegendNANA
06:00 Legend Double Dagger -5.8 -8.1 84 15 13 16.1 100.32   -11 LegendNANA
07:00 Legend Double Dagger -5.9 -8.5 82 15 15 16.1 100.32   -12 LegendNANA
08:00 Legend Double Dagger -5.5 -8.3 81 15 17 16.1 100.33   -12 LegendNANA
09:00 Legend Double Dagger -5.1 -8.2 79 15 21 16.1 100.35   -12 LegendNANA
10:00 Legend Double Dagger -4.7 -8.0 78 16 17 16.1 100.37   -11 LegendNANA
11:00 Legend Double Dagger -4.3 -7.5 78 15 15 14.5 100.39   -10 LegendNANA
12:00 Legend Double Dagger -4.0 -7.1 79 17 11 16.1 100.42   -8 LegendNANA
13:00 Legend Double Dagger -3.7 -6.5 81 17 9 16.1 100.44   -7 LegendNANA
14:00 Legend Double Dagger -3.6 -6.4 81 17 9 16.1 100.48   -7 LegendNANA
15:00 Legend Double Dagger -3.6 -6.1 83 17 13 16.1 100.51   -8 LegendNANA
16:00 Legend Double Dagger -3.7 -6.4 82 18 9 16.1 100.55   -7 LegendNANA
17:00 Legend Double Dagger -4.0 -6.2 85 14 9 16.1 100.58   -8 LegendNANA
18:00 Legend Double Dagger -4.3 -6.3 86 14 9 16.1 100.61   -8 LegendNANA
19:00 Legend Double Dagger -4.4 -6.3 87 14 9 16.1 100.64   -8 LegendNANA
20:00 Legend Double Dagger -4.4 -6.7 84 14 11 16.1 100.67   -9 LegendNANA
21:00 Legend Double Dagger -4.6 -6.6 86 17 13 16.1 100.68   -10 LegendNANA
22:00 Legend Double Dagger -4.6 -6.6 86 16 13 16.1 100.70   -10 LegendNANA
23:00 Legend Double Dagger -4.5 -6.7 85 16 15 16.1 100.70   -10 LegendNANA

Notes on Data Quality.

Legend

  • E = Estimated
  • M = Missing
  • NA = Not Available
  • ‡ = Partner data that is not subject to review by the National Climate Archives
Date modified: